星链-36667(STARLINK-36667)

导读

STARLINK-36667(NORAD编号68975)是美国SpaceX公司星链(Starlink)星座中的一颗低轨互联网卫星,隶属于星链二代卫星组网计划。作为全球最大卫星互联网星座的组成部分,它运行在近地轨道,为全球用户提供高带宽互联网接入服务,覆盖偏远地区并支持移动通信等场景。2026年SpaceX启动降轨计划,将包括该卫星在内的约4400颗星链卫星轨道高度从550公里降至480公里,以缩短脱轨时间、降低碰撞风险,缓解近地轨道拥挤问题,减少太空碎片隐患,提升太空运行安全性。该卫星体现了SpaceX在低轨卫星组网的规模优势与安全优化策略。

基本信息
目录编号:
68975
目录名称:
STARLINK-36667
国际标识:
2026-099AA
轨道中心:
EARTH
卫星名称:
星链-36667
卫星全名:
星链-36667(STARLINK-36667)
卫星状态:
在轨 (已飞行135 天)
发射日期:
2026-05-01 UTC
国别 :
美国 (US)
星等 :
--
该卫星已列入 空间交会检测服务 Space Conjunction Data Service (SCDS) ,当前飞行风险评估等级: 高风险
轨道信息
数据来源 国际轨道数据 AOE轨道数据
星历时间 2026-09-13T07:31:40+0800
11小时前
查看轨道信息
2026-09-10T22:00:00+0800
2天前
查看轨道信息
半长轴 6840.835km 6840.91km
偏心率 0.000153 0.000159
轨道倾角 53.158° 53.154°
近地点辐角 80.703° 55.726°
升交点赤经 110.672° 121.877°
平近点角 279.414° 16.426°
近地点 461.651km 461.685km
远地点 463.745km 463.861km
周期 93.848分钟 93.849分钟
每日圈数 15.344018 15.343767
详细信息
固有亮度:
5
最大亮度:
2.5
卫星平台:
Starlink V1.0
覆盖范围:
全球
运营商:
太空探索技术公司
运营商所在国:
美国
制造商(研发单位):
太空探索技术公司
制造商所在国:
美国
使用方式:
暂无
卫星简介
Starlink 计划是 SpaceX 推出的全球卫星互联网项目,通过发射低轨道卫星,为全球尤其是偏远地区提供高速、低延迟的互联网服务。自 2019 年起,Starlink 已部署数千颗卫星,旨在缩小全球数字鸿沟,推动互联网普及。该项目还为军事、航空等行业提供通信支持,带来广泛经济效益。
2D轨道图
3D轨道图
轨道高度分析图
轨道倾角分析图
轨道综合分析图
查看轨道综合分析图
交会数据列表
事件ID 空间交会对象 最接近时刻(TCA) 交会距离 交会风险概率(CRP) 交会风险指数(CRI) 操作
CDM_260915-025006-897506-924121
2026-09-15T
02:50:07+0000
0.457 km
远距离
1.715517E-4 高风险 0.8
CDM_260915-042306-897506-924121
2026-09-15T
04:23:55+0000
1.209 km
极远距离
8.877864E-6 低风险 0.54
CDM_260915-011606-897506-924121
2026-09-15T
01:16:20+0000
1.817 km
极远距离
2.440081E-6 低风险 0.43
CDM_260914-174705-353706-897521
2026-09-14T
17:47:05+0000
2.242 km
极远距离
1.932512E-6 低风险 0.41
CDM_260915-055706-897506-924121
2026-09-15T
05:57:42+0000
2.692 km
极远距离
1.064825E-6 低风险 0.36
CDM_260915-085505-233606-897521
2026-09-15T
08:55:31+0000
2.535 km
极远距离
8.029103E-7 极低风险 0.33
与全量物体交会距离演化趋势
与全量物体交会风险概率演化趋势